Aérodrome :
LOGIN :

S'inscrire | Disclaimer

   EN    FR    IT 

 










Légende :    VFR   VFR Marginal   IFR   IFR Intensif   IFR Très Intensif
Visi : 
Plafond : 
>= 8 km
>= 3000ft
5 à 8 km
1000 à 3000 ft
1500m à 5 km
500 à 1000 ft
800 à 1500m
200 à 500 ft
< 800m
< 200 ft
Symboles :   Orages  Brouillard  Fortes neiges  Fortes précipitations  Vent > 20 kt
SIGMETs :   Divers  Orages  Givrage  Turbulence  Onde Orograph.  Cendres Volcan.







- Altitude de l'aérodrome : 1017 ft
- Voir les cartes d'approche


LFSL - Brive Souillac

DERNIER METAR :
  • 180600Z AUTO 34004KT CAVOK 02/01 Q1023 NOSIG

METARs EXPIRÉS :
  • 180530Z AUTO 32005KT CAVOK 02/02 Q1023 NOSIG
  • 180500Z AUTO 34005KT CAVOK 01/01 Q1023 NOSIG
  • 180430Z AUTO 32004KT CAVOK 02/01 Q1023 NOSIG
  • 180400Z AUTO 34004KT CAVOK 02/01 Q1023 NOSIG
  • 180330Z AUTO VRB03KT CAVOK 02/01 Q1023 NOSIG

TAF TAF LFSL
Valide du 18 à 06h jusqu'au 18 à 15h UTC


180500Z 1806/1815 33005KT CAVOK
Pas de NOTAMs connus pour ce terrain.



MET'MAP, la Météo Aéronautique d'un coup d'oeil ! - Copyright ORBIFLY Décembre 2007 - Disclaimer

ORBIFLY MET'MAP TEAM :

Programmation & Développement : Alexandra Zaïnal
Conception & Développement : Baudouin d'Aumeries
Co-Programmation & Développement : Marc-Olivier Méhu
Soutien technique & logistique : Manuel Goepfert

Contact : metmap@orbifly.com




SOURCES & CREDITS :

   NOAA